Location: Unspecified
(19.4326°N, 99.1332°W)
Time: 06:15:53
(UTC-06:00)

ISS - Visible Passes

Search period start: 21 November 2017 00:00
Search period end: 01 December 2017 00:00
Orbit: 402 x 407 km, 51.6° (Epoch: 21 November)

Date Brightness Start Highest point End Pass type
(mag) Time Alt. Az. Time Alt. Az. Time Alt. Az.
21 Nov -2.6 05:18:39 32° NNE 05:19:10 34° NE 05:22:09 10° ESE visible
21 Nov -1.5 18:37:07 10° SE 18:37:52 11° SE 18:38:37 10° ESE visible
21 Nov -0.3 20:11:12 10° WSW 20:11:25 11° WSW 20:11:25 11° WSW visible
22 Nov -2.3 06:01:52 16° W 06:03:12 21° SW 06:05:43 10° S visible
22 Nov -3.9 19:18:32 10° SW 19:21:47 77° NW 19:21:55 75° NNW visible
23 Nov -2.3 05:12:23 29° SSE 05:12:23 29° SSE 05:14:11 10° SSE visible
23 Nov -3.1 18:26:33 10° SSW 18:29:34 36° SE 18:32:21 11° ENE visible
24 Nov -1.6 19:11:06 10° W 19:13:39 21° NW 19:15:24 14° N visible
25 Nov -3.1 18:18:07 10° SW 18:21:18 53° NW 18:24:29 10° NNE visible
